Wind_Speed
26 26 24 23 21 23 20 19 17 18 18 16 15 13 9 14 17 14 13 16 26 34 30 32 28 33 36 31 30 30 27 26 27 25 26 23 22 22 24 21 22 22 23
30 28 27 26 22 19 19 16 18 18 16 14 13 12 9 14 16 15 14 12 14 32 35 27 33 38 35 35 31 30 28 27 25 25 26 27 27 28 24 23 21 23 25
24 31 31 27 23 18 14 15 17 18 15 13 12 12 10 17 18 18 15 8 3 22 28 25 36 35 32 31 30 28 26 24 23 24 28 29 29 24 24 24 27 24 25
23 31 32 29 22 19 17 17 18 16 14 12 10 9 8 13 15 16 15 12 4 7 30 29 34 36 34 34 34 32 32 31 35 36 31 26 26 26 27 25 24 28 29
21 25 28 25 21 17 20 18 16 13 11 10 7 7 7 12 16 16 17 13 15 13 13 18 18 31 37 36 36 37 34 31 27 25 26 31 32 32 30 27 25 26 23
19 26 27 27 22 20 21 19 18 13 11 9 6 5 5 10 14 16 17 16 16 21 22 22 23 21 32 38 40 39 37 32 29 30 28 30 30 28 28 28 27 24 27
19 20 29 26 22 24 21 20 18 15 13 10 7 5 4 10 13 15 16 16 17 25 21 27 23 25 31 29 31 27 32 30 35 33 33 32 31 30 29 27 31 36 36
23 23 21 24 24 25 26 22 17 13 13 12 9 5 4 6 10 11 12 13 14 23 26 25 26 21 27 28 23 34 34 34 31 34 39 38 37 37 35 35 38 43 45
22 28 27 23 25 28 30 25 18 16 15 13 10 7 5 4 7 7 7 8 8 12 34 30 23 25 23 27 22 26 35 34 35 36 37 34 43 44 40 38 34 40 37
25 23 31 27 27 28 31 25 19 18 19 16 13 11 7 5 5 6 5 5 7 11 18 21 25 25 25 25 22 29 25 34 36 33 34 30 37 46 43 44 46 38 44
23 26 30 30 30 29 33 27 23 22 19 19 16 13 11 8 5 3 3 3 5 10 17 18 19 25 26 25 24 25 30 25 27 25 35 32 32 38 43 44 45 46 47
22 30 29 25 25 35 36 30 26 25 24 21 18 15 12 11 9 8 6 4 4 5 9 10 13 15 22 23 24 23 25 28 34 31 33 35 37 33 35 42 46 52 44
14 19 26 30 27 40 38 37 33 31 24 17 16 15 14 13 12 11 9 9 8 8 8 8 9 10 10 12 16 17 25 28 31 34 35 32 34 36 38 38 39 39 38
6 15 26 21 32 37 38 37 34 28 19 16 16 15 15 14 14 12 11 10 9 8 9 10 11 12 13 14 14 15 17 21 25 28 30 32 36 42 43 41 41 41 43
10 8 13 20 24 29 35 36 32 25 18 17 16 13 12 12 11 11 11 12 11 12 12 14 13 14 15 17 18 20 22 23 24 25 27 29 30 30 32 36 35 39 43
21 21 19 16 18 20 27 28 28 24 22 20 17 14 16 14 12 12 13 13 12 13 14 16 17 17 22 20 21 22 24 26 28 29 30 32 33 33 36 39 40 42 46
22 22 20 21 22 22 20 19 22 24 23 26 22 19 14 12 12 12 14 15 16 17 18 19 22 26 29 29 29 30 31 32 34 34 35 36 38 39 40 41 43 46 47
16 15 22 19 16 15 15 14 11 10 11 13 13 11 11 13 14 16 18 20 22 23 23 24 25 27 29 29 30 32 34 36 37 40 42 45 46 47 48 47 47 48 46
26 25 21 12 18 17 12 8 9 7 6 5 5 7 8 11 12 12 13 16 18 19 21 23 26 28 29 30 31 32 35 38 41 42 45 47 48 48 50 51 53 52 49
21 25 24 21 14 10 9 8 4 6 6 8 9 10 12 13 15 15 16 17 18 19 21 23 25 28 30 30 31 32 32 35 37 40 43 46 49 50 51 51 51 50 54
19 19 17 16 13 11 5 1 3 6 8 10 11 13 14 16 17 18 20 20 21 21 22 23 25 26 28 31 33 35 37 39 41 43 45 46 47 48 49 51 53 51 51
19 16 11 8 7 7 7 4 7 9 10 11 13 15 15 16 18 19 20 21 22 22 22 23 24 25 26 26 27 27 29 31 34 37 41 44 49 49 48 46 45 47 50
18 11 9 7 6 6 7 7 9 11 12 12 13 14 15 15 16 18 19 20 21 22 23 24 25 26 28 30 31 32 31 30 27 27 28 31 36 40 42 39 36 37 42
10 5 5 5 6 7 9 9 10 11 12 13 13 14 15 15 16 17 18 19 19 20 21 22 23 24 25 26 27 28 29 28 28 27 26 26 27 28 30 31 29 27 26
3 5 8 7 8 9 10 10 10 11 11 13 15 16 16 17 18 19 19 19 20 19 19 20 20 21 22 22 23 23 23 23 24 24 24 23 23 24 25 26 27 23 18
4 7 8 9 10 10 11 11 11 12 12 13 15 15 15 15 16 16 17 17 18 18 17 18 18 18 18 19 20 20 21 21 21 21 20 20 21 22 23 24 22 21 23
Wind_Direction
221 222 224 226 234 246 253 258 269 284 300 298 298 301 278 220 219 226 221 234 231 218 219 215 203 197 194 203 205 206 207 204 206 211 216 220 216 218 221 223 219 217 215
227 228 226 229 234 247 250 249 259 275 294 296 301 302 258 211 215 214 220 277 252 215 219 215 214 195 193 201 203 210 204 206 212 216 223 226 223 223 220 230 237 225 225
236 232 235 232 234 242 235 228 250 266 287 299 303 297 251 210 214 219 215 246 236 210 193 192 195 199 197 203 203 205 207 218 222 219 225 225 226 228 230 226 227 227 234
242 234 238 225 223 242 216 221 243 262 277 293 298 296 239 219 218 224 219 220 238 199 203 200 201 196 203 205 205 210 214 218 222 226 227 229 235 241 239 237 232 231 230
234 226 219 216 218 221 214 214 228 256 270 286 294 297 244 219 209 212 215 226 228 204 209 210 215 202 201 207 213 214 222 223 221 219 223 224 239 239 240 240 239 244 261
227 214 204 215 221 207 208 211 227 248 272 275 281 279 222 216 220 224 225 223 228 220 229 227 221 216 217 211 214 219 226 226 221 226 232 236 239 244 247 251 248 239 252
216 197 212 219 216 207 207 207 223 236 263 260 259 259 210 205 212 220 232 238 234 221 227 222 223 217 232 219 226 231 233 235 230 226 230 232 238 243 244 247 247 250 260
214 204 211 222 226 209 206 209 215 232 250 246 244 240 216 198 203 216 232 246 245 218 223 221 214 225 227 219 229 231 235 242 243 237 225 227 231 236 235 243 252 256 259
212 207 223 221 218 210 199 206 209 226 237 230 239 234 216 194 200 207 225 245 230 214 202 208 217 211 227 229 232 238 247 254 255 244 242 250 234 237 236 238 241 258 261
224 215 225 223 219 204 197 195 197 218 229 219 222 227 220 197 187 192 201 210 200 177 181 200 217 218 225 221 242 243 249 255 257 262 254 249 235 245 245 241 247 243 259
224 223 225 227 221 205 189 186 196 218 224 218 214 216 215 212 200 194 191 172 185 198 192 195 204 218 222 234 247 238 243 249 248 260 256 261 257 251 247 248 243 253 248
214 212 226 226 225 196 186 187 193 212 216 215 214 217 214 209 200 200 203 199 177 165 197 210 213 219 224 229 228 230 236 242 248 255 261 261 256 266 262 260 261 254 262
209 203 218 246 223 186 187 187 199 211 210 207 214 216 217 216 213 213 212 208 200 192 195 209 226 240 245 249 247 242 237 240 239 248 249 254 255 258 259 260 257 260 262
196 186 198 204 192 186 186 190 204 212 207 209 220 216 216 220 228 231 232 233 235 233 225 221 225 233 246 254 255 254 252 253 254 257 260 260 257 255 255 255 257 256 259
151 158 178 176 186 187 189 195 206 206 213 216 213 215 221 229 236 240 246 248 248 247 246 249 250 250 254 254 257 259 258 260 263 265 265 267 272 275 276 274 274 270 268
135 136 143 168 189 192 198 200 202 207 208 210 215 232 224 223 232 235 242 250 251 257 261 260 255 249 247 256 261 265 269 272 272 271 272 273 273 272 269 268 267 268 272
115 119 129 137 141 146 154 170 188 199 207 218 219 225 215 219 228 238 245 250 255 258 261 262 262 259 260 263 265 265 266 267 269 272 273 273 271 269 269 270 272 272 270
166 139 132 130 138 142 138 150 169 194 194 200 216 225 239 248 252 252 255 257 259 263 266 267 266 266 265 266 267 267 268 269 270 269 267 266 264 264 265 266 265 267 268
220 198 161 157 137 137 138 136 134 178 185 201 239 255 263 266 266 264 264 265 266 269 271 274 275 274 274 273 271 271 272 273 272 273 272 272 273 271 267 264 265 265 268
165 160 158 153 118 86 90 108 180 217 224 246 249 261 266 269 272 275 274 272 271 270 270 271 273 277 281 282 282 281 280 278 277 276 277 278 278 275 272 271 271 270 269
141 120 113 100 103 105 98 220 242 274 272 268 268 264 266 270 272 273 272 271 271 272 273 275 275 274 275 276 277 279 280 280 281 281 282 281 281 280 278 275 272 270 270
148 147 167 180 192 193 190 219 269 273 268 267 268 268 267 266 269 272 274 276 278 280 282 283 285 286 286 287 286 286 285 285 285 285 285 285 285 287 289 287 280 276 270
161 178 183 194 219 239 249 246 248 261 270 268 266 269 271 273 273 275 277 278 280 282 284 286 288 289 291 293 293 294 295 295 295 295 296 296 294 293 291 292 295 294 284
136 205 231 245 251 260 263 262 260 263 269 275 277 279 282 283 283 281 280 280 281 283 285 287 288 289 290 291 293 295 296 297 298 300 304 307 311 311 309 307 306 307 302
191 261 266 265 273 278 277 276 274 271 270 271 272 273 275 278 279 278 280 283 284 285 287 287 288 289 289 291 293 296 299 302 304 304 305 308 313 316 321 325 324 321 316
273 270 273 275 272 271 272 272 272 271 270 270 272 272 274 276 276 276 278 279 279 282 284 286 288 289 292 296 300 302 303 305 308 309 310 309 308 308 309 311 312 313 311
Height
3049 3052 3056 3057 3060 3062 3064 3067 3069 3068 3067 3064 3063 3060 3059 3060 3063 3066 3068 3069 3069 3069 3075 3082 3087 3091 3097 3104 3112 3117 3121 3125 3129 3133 3136 3139 3141 3145 3149 3151 3153 3155 3157
3042 3046 3049 3052 3054 3057 3059 3062 3065 3065 3064 3061 3059 3057 3056 3058 3060 3063 3064 3065 3061 3063 3072 3077 3083 3088 3094 3101 3107 3113 3117 3121 3126 3129 3133 3136 3140 3142 3145 3148 3150 3152 3155
3035 3039 3043 3047 3049 3052 3055 3058 3061 3061 3060 3058 3056 3054 3054 3054 3057 3059 3061 3062 3060 3060 3067 3073 3078 3085 3092 3098 3103 3109 3113 3118 3122 3126 3129 3131 3135 3140 3141 3143 3146 3148 3151
3029 3032 3036 3040 3044 3048 3050 3054 3057 3058 3057 3055 3054 3052 3051 3053 3055 3058 3060 3060 3062 3062 3067 3072 3078 3083 3089 3093 3098 3105 3110 3115 3118 3121 3124 3128 3132 3135 3139 3140 3142 3143 3146
3022 3025 3030 3035 3039 3042 3047 3050 3053 3054 3054 3053 3052 3050 3049 3051 3052 3056 3058 3060 3062 3063 3067 3071 3076 3081 3086 3090 3096 3100 3104 3108 3112 3116 3120 3125 3128 3131 3133 3135 3137 3137 3140
3016 3019 3025 3029 3033 3038 3042 3045 3049 3050 3050 3050 3049 3048 3047 3048 3051 3053 3055 3058 3060 3062 3065 3069 3073 3076 3082 3087 3090 3095 3099 3103 3106 3111 3115 3117 3122 3126 3128 3131 3133 3134 3136
3012 3014 3020 3024 3028 3033 3038 3041 3045 3047 3047 3047 3046 3046 3045 3046 3048 3051 3052 3054 3056 3058 3060 3065 3069 3074 3076 3080 3085 3089 3093 3096 3100 3104 3108 3112 3116 3119 3121 3124 3126 3127 3129
3007 3011 3016 3020 3024 3028 3032 3036 3041 3044 3044 3044 3044 3044 3044 3045 3045 3047 3049 3049 3050 3053 3055 3060 3066 3070 3072 3076 3080 3083 3087 3091 3095 3096 3099 3104 3108 3111 3114 3118 3119 3119 3120
3003 3007 3011 3015 3017 3021 3026 3031 3036 3040 3041 3041 3042 3042 3043 3043 3044 3044 3045 3045 3045 3047 3051 3057 3062 3066 3069 3073 3077 3080 3082 3084 3087 3090 3093 3097 3100 3103 3106 3110 3111 3111 3111
2997 3002 3006 3009 3012 3016 3021 3027 3032 3036 3037 3038 3040 3041 3042 3042 3043 3043 3044 3044 3044 3045 3049 3054 3060 3063 3066 3069 3072 3074 3077 3079 3081 3083 3086 3090 3093 3095 3098 3100 3102 3102 3102
2990 2995 2999 3002 3006 3011 3016 3022 3027 3031 3033 3035 3037 3039 3040 3041 3042 3042 3043 3044 3045 3047 3048 3051 3056 3059 3062 3065 3068 3069 3072 3074 3077 3079 3079 3083 3087 3088 3090 3091 3093 3094 3095
2983 2987 2992 2996 3000 3005 3011 3017 3022 3025 3027 3031 3033 3036 3038 3039 3041 3042 3042 3043 3045 3047 3049 3051 3053 3055 3058 3060 3062 3064 3066 3068 3069 3073 3075 3077 3079 3081 3081 3083 3083 3085 3088
2978 2981 2986 2989 2993 2997 3004 3009 3014 3018 3023 3028 3030 3032 3034 3035 3037 3038 3040 3042 3044 3046 3048 3050 3052 3054 3056 3057 3058 3059 3061 3063 3065 3067 3069 3071 3072 3072 3074 3075 3075 3077 3078
2978 2977 2981 2985 2989 2994 3000 3006 3011 3017 3022 3025 3027 3029 3031 3032 3034 3036 3037 3039 3041 3042 3045 3047 3048 3050 3051 3052 3053 3055 3056 3057 3059 3061 3061 3062 3063 3064 3065 3065 3065 3067 3068
2978 2978 2979 2983 2988 2993 2998 3002 3007 3014 3018 3021 3024 3026 3028 3029 3031 3032 3034 3036 3037 3039 3040 3041 3043 3044 3045 3046 3047 3048 3049 3050 3051 3052 3053 3053 3054 3055 3056 3055 3057 3057 3056
2978 2979 2980 2983 2987 2991 2996 3000 3006 3010 3013 3017 3020 3021 3024 3025 3027 3029 3031 3032 3033 3035 3036 3037 3037 3038 3036 3038 3039 3039 3041 3042 3044 3045 3046 3045 3045 3046 3046 3046 3047 3047 3044
2978 2979 2982 2984 2986 2989 2993 2998 3000 3003 3008 3011 3016 3019 3019 3020 3022 3024 3026 3027 3028 3029 3030 3031 3032 3032 3031 3032 3032 3033 3033 3033 3033 3034 3034 3033 3033 3033 3033 3033 3032 3033 3033
2981 2981 2981 2984 2986 2988 2990 2993 2996 2999 3001 3007 3012 3012 3014 3015 3017 3018 3019 3021 3022 3023 3023 3024 3024 3023 3024 3025 3026 3026 3026 3026 3026 3024 3023 3019 3019 3020 3019 3019 3019 3019 3020
2977 2978 2981 2983 2985 2987 2990 2992 2993 2999 3001 3002 3005 3007 3008 3010 3011 3012 3013 3014 3015 3015 3015 3016 3016 3015 3015 3017 3016 3016 3016 3014 3013 3012 3009 3007 3008 3008 3008 3007 3006 3007 3004
2974 2975 2977 2980 2984 2987 2989 2991 2996 2997 2998 3000 3001 3002 3004 3005 3006 3007 3007 3008 3008 3009 3009 3009 3009 3008 3007 3006 3005 3005 3004 3002 3000 2999 2996 2994 2993 2993 2994 2994 2993 2991 2988
2975 2977 2979 2982 2984 2985 2989 2992 2994 2993 2995 2997 2997 2998 2998 3000 3001 3001 3002 3002 3002 3001 3001 3001 3001 3000 2999 2998 2997 2996 2994 2992 2989 2986 2984 2981 2978 2976 2976 2976 2975 2974 2971
2976 2978 2981 2983 2984 2986 2987 2990 2990 2991 2991 2993 2993 2995 2993 2994 2994 2995 2994 2994 2994 2994 2993 2992 2991 2990 2989 2988 2987 2986 2984 2982 2980 2976 2973 2969 2965 2961 2959 2957 2957 2957 2956
2974 2977 2979 2981 2983 2984 2984 2985 2986 2987 2988 2988 2989 2989 2989 2988 2987 2987 2987 2987 2987 2986 2985 2984 2983 2981 2979 2977 2976 2974 2972 2970 2968 2966 2962 2959 2956 2951 2947 2944 2942 2940 2939
2973 2976 2978 2979 2980 2981 2982 2982 2982 2983 2984 2984 2984 2983 2983 2982 2982 2982 2982 2982 2981 2980 2979 2977 2976 2975 2972 2970 2969 2966 2964 2961 2958 2955 2952 2949 2945 2942 2938 2934 2929 2926 2925
2973 2976 2977 2977 2977 2978 2979 2979 2979 2979 2979 2980 2980 2979 2978 2978 2977 2977 2976 2976 2975 2974 2972 2971 2970 2968 2966 2964 2961 2959 2956 2954 2951 2949 2946 2943 2940 2936 2932 2929 2927 2923 2919
2973 2975 2975 2975 2976 2976 2976 2976 2976 2975 2975 2975 2975 2974 2973 2973 2973 2973 2972 2971 2970 2968 2967 2965 2964 2962 2960 2957 2955 2952 2950 2947 2945 2943 2942 2938 2936 2933 2930 2927 2923 2920 2919